Flag for U.S.A. Weather past 2 weeks in Cincinnati, Ohio, U.S.A.

Now
58 °F

Overcast.


Feels Like: 58 °F
Forecast: 48 / 70 °F
Wind: No wind

Location: Cincinnati Municipal Airport Lunken Field

Current Time: Sep 16, 2014 at 9:35:59 PM

Latest Report: Sep 16, 2014 at 8:53 PM


Visibility: 10 mi

Pressure: 30.11 "Hg

Humidity: 93%

Dew point: 56 °F

Location of CincinnatiLocation

Historic Weather in Cincinnati — Graph

°F

Cincinnati temperature yesterday

Maximum temperature yesterday: 72 °F (at 3:53 PM)
Minimum temperature yesterday: 46 °F (at 7:53 AM)
Average temperature yesterday: 58 °F

Past Weeks' High & Low Weather Summary

 TemperatureHumidityPressure
High89 °F (Sep 4, 4:53 PM)100% (Sep 2, 9:53 PM)30.34 "Hg (Sep 2, 9:53 PM)
Low43 °F (Sep 14, 6:53 AM)37% (Sep 9, 5:53 PM)29.78 "Hg (Sep 10, 7:53 PM)
Average67 °F80%30.09 "Hg
* Reported Sep 1 7:53 PM — Sep 16 7:53 PM, Cincinnati, Weather by CustomWeather, © 2014

Note: Actual official high and low records may vary slightly from our data, if they occured in-between our weather recording intervals... More about our weather records

Advertising

Cincinnati weather history for previous 24 hours

 ConditionsComfort  
Time TempWeatherWind HumidityBarometerVisibility
7:53 PM
Sep 16
59 °FOvercast.No wind87%30.11 "Hg10 mi
6:53 PM61 °FOvercast.No wind72%30.11 "Hg10 mi
5:53 PM61 °FOvercast.No wind70%30.12 "Hg10 mi
4:53 PM62 °FOvercast.5 mph70%30.13 "Hg10 mi
3:53 PM61 °FOvercast.3 mph70%30.14 "Hg10 mi
2:53 PM61 °FOvercast.6 mph72%30.14 "Hg10 mi
1:53 PM61 °FOvercast.5 mph72%30.16 "Hg10 mi
12:53 PM62 °FPartly sunny.7 mph70%30.16 "Hg10 mi
11:53 AM60 °FOvercast.10 mph72%30.16 "Hg10 mi
10:53 AM58 °FOvercast.9 mph84%30.18 "Hg10 mi
9:53 AM58 °FOvercast.6 mph84%30.18 "Hg10 mi
8:53 AM58 °FOvercast.9 mph87%30.16 "Hg10 mi
7:53 AM59 °FMostly cloudy.5 mph93%30.15 "Hg7 mi
6:53 AM59 °FMostly cloudy.5 mph93%30.13 "Hg10 mi
5:53 AM59 °FOvercast.3 mph93%30.11 "Hg9 mi
4:53 AM58 °FFog.No wind100%30.10 "Hg2 mi
3:53 AM59 °FLight rain. Fog.3 mph96%30.10 "Hg4 mi
2:53 AM59 °FOvercast.3 mph96%30.10 "Hg9 mi
1:53 AM59 °FFog.7 mph96%30.10 "Hg6 mi
12:53 AM59 °FLow clouds.6 mph93%30.12 "Hg10 mi
11:53 PM
Sep 15
60 °FOvercast.6 mph96%30.11 "Hg7 mi
10:53 PM60 °FMostly cloudy.3 mph96%30.11 "Hg8 mi
9:53 PM59 °FOvercast.No wind96%30.10 "Hg10 mi
Weather by CustomWeather, © 2014

See weather overviewHow to use our weather pages